Theta_e
287 288 288 289 290 290 290 291 291 291 291 290 290 289 289 289 290 290 291 291 291 291 291 291 291 292 292 292 293 294 294 294 294 294 294 295 295 294 294 294 293 293 292 292 292 292 291 291 291 291 290 290 289 289 289 289 290 289 288 289 289 289
287 287 288 288 289 289 290 290 291 290 290 290 289 289 289 289 289 289 289 290 290 291 291 291 291 291 291 291 291 291 292 293 293 293 293 294 294 294 294 293 292 292 291 291 291 291 291 290 290 290 290 289 289 289 288 288 289 288 287 288 289 288
287 287 288 289 289 289 290 290 290 290 290 289 289 288 288 288 289 288 289 290 290 290 290 290 290 290 290 290 290 290 291 291 292 292 293 293 292 293 292 292 292 292 291 291 291 290 290 290 289 289 289 289 288 288 288 288 287 287 287 288 287 287
287 287 288 289 289 289 289 289 289 289 288 289 289 288 288 288 288 288 288 288 289 290 290 290 290 290 290 289 290 290 290 290 291 292 292 291 292 292 292 292 292 291 291 290 290 290 290 290 290 289 289 288 288 287 288 287 287 286 286 287 286 286
287 287 287 288 288 288 289 289 289 288 288 288 288 287 287 288 288 288 288 288 288 289 290 289 289 289 288 288 289 289 290 290 290 291 291 290 291 291 291 291 291 291 290 290 289 290 289 289 289 289 288 288 287 287 287 287 287 286 285 285 286 286
286 287 287 287 288 288 288 288 288 288 288 288 288 287 287 287 288 288 288 287 287 287 288 288 288 288 287 287 287 288 289 289 290 290 290 290 290 290 290 290 291 291 290 289 289 289 289 288 288 288 287 287 287 287 286 286 286 286 285 285 285 285
285 286 286 287 287 287 288 287 287 287 287 287 287 287 287 287 288 287 287 286 286 286 286 287 287 286 286 286 287 286 287 288 288 289 289 289 289 289 289 289 290 289 289 288 288 288 288 288 288 287 287 287 287 286 286 286 285 285 285 285 285 285
285 285 286 286 287 287 287 287 287 287 287 286 287 286 286 286 287 288 287 287 286 286 286 286 286 286 286 286 286 286 287 287 288 288 289 289 289 289 289 289 289 288 288 288 288 288 287 287 287 287 286 286 286 286 286 286 286 285 285 285 285 285
284 285 286 286 286 287 287 287 287 286 287 286 286 286 286 286 286 287 287 286 286 285 286 286 286 286 285 285 285 286 286 287 287 288 288 289 288 288 288 289 288 288 287 288 288 288 288 287 287 286 285 285 285 285 284 285 285 284 284 284 284 284
284 285 285 285 286 287 287 287 287 286 286 286 286 286 285 286 285 285 286 286 285 285 286 286 287 286 286 286 285 286 286 286 286 287 287 288 288 288 288 288 288 288 288 287 287 288 288 288 288 288 287 286 285 285 284 284 284 284 284 283 284 284
284 284 285 285 285 285 286 286 286 286 286 286 286 286 285 285 284 284 285 285 284 284 285 286 287 287 286 285 285 285 285 286 286 286 286 287 287 288 288 288 287 287 287 287 287 286 287 287 287 287 287 286 285 284 284 284 284 283 283 283 283 283
284 285 285 285 285 285 285 286 285 285 285 285 285 285 285 284 284 284 284 284 283 284 285 286 286 286 285 284 284 284 285 285 286 286 286 286 287 287 287 287 287 287 287 286 286 286 286 286 287 287 287 287 285 284 284 284 284 284 283 283 283 283
284 285 284 284 285 284 285 285 286 285 284 284 284 284 284 284 283 283 283 283 283 283 284 285 285 285 284 284 283 283 284 284 284 285 285 285 286 286 286 287 286 286 286 286 286 286 286 286 287 287 289 289 289 287 285 285 284 284 284 283 283 283
284 284 284 284 285 285 285 285 285 284 283 284 284 284 284 283 282 282 282 282 282 282 283 284 284 283 282 282 282 282 283 284 284 284 284 284 284 285 285 285 286 286 286 286 286 286 286 286 287 288 289 289 289 288 286 285 284 284 284 283 283 283
284 284 284 285 285 284 285 285 284 283 283 283 284 284 282 282 281 281 281 281 281 281 282 283 282 281 280 280 280 280 281 283 283 283 284 283 284 284 284 284 285 285 286 286 286 286 286 286 287 289 289 289 289 289 288 285 285 284 284 284 283 283
284 285 285 285 285 285 285 285 284 284 284 283 283 282 282 281 281 281 280 280 280 281 281 281 280 279 279 279 278 279 279 282 282 283 283 283 284 284 284 284 284 285 285 285 285 286 286 286 287 288 289 289 289 289 289 286 285 284 284 284 283 283
284 284 284 284 284 284 284 284 284 283 283 283 282 282 281 280 280 279 279 279 279 280 280 279 279 278 278 277 277 277 278 280 282 282 282 282 282 282 282 283 283 283 284 285 285 285 285 286 287 288 288 289 289 289 289 287 286 285 284 284 284 283
284 284 283 284 284 283 283 283 283 282 281 282 281 280 280 279 279 279 279 278 279 278 279 278 277 277 276 276 275 275 276 278 281 281 281 281 282 282 283 283 283 283 283 284 284 284 284 286 287 287 288 288 289 289 287 286 286 285 285 284 284 283
284 284 284 283 283 282 282 282 282 281 280 280 279 279 279 278 278 278 278 278 278 278 278 277 276 275 275 274 274 274 275 276 278 279 280 279 280 280 281 281 281 282 283 283 283 283 284 285 286 286 287 287 288 288 287 286 286 286 285 284 285 283
284 283 283 282 282 282 282 281 280 279 278 278 278 278 277 277 277 277 277 277 277 277 277 276 275 274 274 273 273 273 273 274 276 277 278 278 278 278 279 280 281 281 282 282 282 283 283 284 285 286 286 286 287 287 286 286 286 285 285 285 285 284
283 282 282 281 281 281 281 280 279 278 277 277 277 277 276 276 276 276 276 276 276 276 276 275 274 273 272 272 272 272 272 272 274 276 277 277 277 277 279 279 280 280 281 282 282 282 282 283 284 285 285 286 286 286 286 286 285 285 285 285 284 284
282 281 281 280 280 281 280 279 278 276 275 276 276 275 275 275 275 276 276 275 275 275 274 274 273 272 272 271 271 271 271 272 273 274 275 274 275 275 276 277 278 279 279 280 281 281 282 282 283 284 285 285 286 286 285 285 284 284 284 284 284 282
281 280 280 280 280 280 279 277 276 275 275 275 274 273 274 275 275 274 274 274 273 273 273 272 272 271 271 271 270 270 271 271 272 273 272 272 272 273 273 275 276 277 278 279 280 281 281 282 282 283 284 285 285 286 286 285 284 284 284 284 283 282
279 279 279 279 279 278 277 276 274 273 273 273 272 273 274 274 273 273 272 272 271 271 271 270 270 270 270 270 269 269 269 270 271 271 270 270 270 270 271 272 274 275 277 278 279 280 280 281 282 282 283 284 285 285 285 284 285 285 284 284 283 281
278 278 277 278 277 277 275 274 272 272 271 271 271 272 272 272 271 271 270 270 269 269 269 269 269 269 269 268 268 268 267 268 268 268 268 268 268 269 269 271 273 274 276 277 278 279 280 281 281 282 282 283 284 284 285 285 285 286 286 284 283 280
276 276 276 275 275 274 274 272 270 270 269 269 271 271 270 269 269 269 268 267 267 267 267 267 267 267 267 267 267 267 266 266 266 267 267 267 267 268 269 270 272 274 275 275 277 278 280 281 281 281 281 281 282 284 284 285 286 286 285 285 284 283
273 272 272 273 272 272 271 271 269 268 267 268 269 268 267 266 266 265 265 264 265 265 265 265 265 265 265 265 265 265 265 265 265 265 266 267 267 267 268 269 271 272 274 275 276 277 279 280 281 280 280 281 282 283 284 284 285 286 286 285 284 282
271 270 269 270 270 270 269 268 267 265 265 266 266 265 265 264 263 262 262 262 263 263 263 263 263 263 264 264 265 264 264 264 264 264 265 266 266 267 268 269 270 272 273 274 275 276 277 279 280 279 279 279 280 281 282 283 284 284 285 285 284 284
268 267 267 266 268 267 267 266 265 264 264 263 264 263 263 262 261 261 261 260 261 261 261 261 261 262 262 262 263 263 264 264 264 264 264 265 265 266 267 269 270 272 273 274 275 276 277 277 278 279 279 278 278 278 279 280 281 283 283 284 284 283
266 265 265 265 265 265 264 263 263 263 262 262 262 262 261 260 260 260 259 259 260 260 260 260 261 261 261 261 262 262 262 263 263 263 263 264 264 265 266 267 269 270 272 273 275 276 276 277 277 278 278 278 278 277 278 279 280 280 281 282 283 282
264 264 263 262 263 262 262 261 261 261 261 261 261 261 260 259 259 259 259 259 259 259 260 260 260 260 260 260 261 261 262 261 262 262 263 265 266 266 266 266 267 269 271 272 273 274 274 276 276 278 280 278 279 277 277 277 278 280 281 282 284 280
262 261 260 260 261 261 260 260 260 261 261 261 261 260 259 259 259 258 258 259 259 259 259 259 260 260 260 260 260 260 261 264 267 265 263 263 267 270 271 271 268 269 270 271 273 275 274 275 277 280 281 281 281 280 280 280 280 281 281 283 284 280
260 260 259 259 260 259 259 259 259 260 260 260 260 260 259 259 258 258 258 258 259 259 259 259 259 259 260 260 260 260 260 260 262 267 268 269 269 270 271 272 273 274 275 273 271 274 278 279 280 281 281 281 281 281 281 281 281 282 282 283 281 277
258 258 258 258 258 258 259 258 259 259 260 260 260 260 259 258 258 257 258 258 258 258 259 259 259 259 259 259 260 259 259 259 259 260 265 268 268 269 270 272 273 274 275 276 276 275 274 277 279 280 281 281 281 281 281 282 282 282 283 283 282 276
258 258 258 258 258 258 258 258 258 259 259 260 259 259 258 258 257 257 257 257 258 258 258 258 258 258 259 258 258 259 259 259 259 258 259 262 267 269 270 271 272 273 273 274 276 278 278 278 279 280 281 281 281 282 281 282 282 282 283 283 279 277
258 258 257 257 257 257 258 257 258 259 259 259 259 258 258 257 257 257 257 257 257 257 258 258 258 258 258 259 259 259 259 259 259 259 259 259 260 262 265 268 269 270 271 272 273 274 276 278 279 280 281 281 282 282 282 281 280 282 283 282 278 277
257 257 257 257 257 257 257 258 258 259 259 258 258 258 257 257 257 257 257 258 258 258 258 258 258 258 258 258 258 259 259 259 259 259 259 259 259 259 259 261 263 267 270 268 269 271 273 275 278 279 280 282 282 282 282 282 279 278 279 280 279 278
256 256 257 257 257 258 257 257 258 258 258 258 258 257 257 257 257 257 257 258 258 258 258 258 258 259 258 258 259 259 259 259 259 259 259 260 260 260 260 261 263 264 268 271 272 274 275 275 277 278 280 281 282 282 282 278 277 277 277 278 279 278
Wind_Speed
12 11 11 10 10 11 11 11 11 12 10 11 10 11 11 11 10 11 10 11 9 10 13 15 13 11 10 9 10 10 9 10 9 9 8 7 6 7 7 8 9 9 10 11 12 11 12 13 13 12 12 13 11 11 11 11 11 11 12 11 10 9
8 9 10 11 11 12 11 11 11 13 13 14 15 13 12 12 13 13 13 12 11 11 10 11 11 12 11 10 10 9 10 11 10 10 9 9 7 7 8 8 9 10 10 10 11 12 12 13 13 13 13 13 13 12 12 12 13 13 13 11 10 8
5 4 4 5 6 7 9 10 12 12 11 13 15 16 17 17 14 12 11 11 12 11 12 11 10 11 9 11 11 10 10 10 10 10 9 8 8 8 8 9 9 10 10 11 11 12 12 13 13 12 12 13 14 14 14 13 13 14 12 11 12 11
7 6 7 7 8 9 10 9 9 11 12 11 11 12 13 14 15 15 14 11 10 13 12 13 11 12 11 11 10 11 12 11 11 10 9 10 10 9 9 10 9 9 10 10 12 12 12 12 13 13 12 14 14 15 10 12 13 14 14 12 12 13
8 7 9 9 9 8 8 8 9 10 10 11 11 12 13 12 11 12 12 12 13 13 12 12 12 12 12 13 11 12 12 12 12 11 11 10 9 9 9 10 10 9 9 10 10 11 12 13 13 12 13 14 15 15 13 12 13 14 14 14 14 12
9 9 11 10 10 10 11 10 11 11 11 11 11 12 12 12 11 11 11 11 12 13 12 12 11 13 13 12 10 12 13 11 11 11 11 11 9 9 9 9 11 10 9 9 10 11 11 11 12 13 13 15 15 15 14 13 13 12 13 15 14 12
12 11 11 11 12 12 12 12 11 10 10 11 11 11 10 10 8 9 9 10 11 9 10 11 11 12 12 12 11 13 11 11 10 10 12 11 10 9 9 8 9 10 9 8 9 9 11 11 12 13 14 14 14 15 14 13 14 13 13 13 13 15
8 9 10 10 10 10 11 11 11 11 10 10 9 9 9 9 9 9 9 8 9 10 11 10 10 11 12 11 11 11 11 10 10 11 10 10 12 12 10 10 8 7 11 10 9 9 9 8 9 12 13 13 13 13 14 14 13 14 14 14 11 10
7 7 8 8 9 9 9 9 10 10 10 11 10 10 9 9 9 9 9 10 9 9 9 10 10 10 9 10 10 9 9 11 11 11 11 10 10 11 11 11 10 8 7 10 10 11 11 12 12 11 9 10 11 12 13 13 12 11 10 11 15 17
5 7 8 9 9 9 9 8 8 8 8 9 10 10 10 9 10 10 10 9 9 9 10 8 8 9 10 10 10 10 9 8 9 11 11 10 11 10 10 11 12 10 9 8 10 10 9 11 13 14 14 13 13 11 12 12 10 11 10 10 11 12
6 6 6 6 7 8 9 8 9 10 11 10 9 9 9 10 10 11 10 11 11 10 10 9 8 7 9 10 10 11 12 12 10 9 8 10 10 9 9 10 10 11 10 8 8 11 12 12 11 10 10 10 11 11 10 12 10 10 12 12 13 11
6 6 6 7 8 9 9 8 8 9 10 11 11 11 10 11 11 11 11 10 10 10 11 11 9 9 9 10 11 12 12 12 12 11 11 9 9 9 9 9 9 10 11 11 10 9 9 11 12 14 19 18 11 13 13 14 14 13 12 13 14 15
8 7 8 8 8 9 9 9 8 8 9 9 9 10 10 10 11 11 10 11 11 11 11 10 10 10 10 10 10 9 10 12 11 11 11 10 8 10 10 10 10 9 8 10 12 13 11 9 10 18 17 19 22 16 15 14 14 14 14 12 14 15
8 9 9 9 9 9 9 9 8 9 9 9 9 9 9 9 10 10 10 10 11 12 12 11 11 10 10 10 9 10 9 9 10 10 10 10 11 9 8 10 10 10 10 9 11 11 12 11 15 18 17 19 21 20 13 12 13 13 11 12 13 13
8 9 10 9 9 10 11 10 10 10 10 10 10 9 9 10 10 10 11 10 10 10 10 11 11 12 11 10 10 11 11 10 9 9 10 10 10 9 9 11 11 11 10 10 12 12 12 12 15 17 18 19 21 22 19 14 14 14 13 12 12 14
7 8 9 10 10 10 10 10 10 10 10 10 9 9 10 10 11 10 11 11 11 11 11 10 9 11 12 12 12 12 12 12 11 10 10 10 10 9 10 11 10 10 10 10 11 12 12 13 14 16 18 19 21 23 20 15 16 15 15 13 13 13
8 9 9 9 9 10 10 10 10 11 11 10 9 9 10 10 11 11 10 11 11 10 9 9 9 10 11 12 13 13 13 13 12 11 10 9 10 10 10 10 11 12 11 10 10 10 12 11 15 15 17 18 21 23 21 15 15 15 15 13 13 14
9 10 10 10 9 10 10 11 11 10 11 10 9 10 9 10 9 11 10 10 10 9 10 9 10 10 10 11 12 13 14 14 13 13 11 11 10 9 9 10 9 12 14 12 12 11 13 12 16 16 17 19 21 24 16 14 15 16 16 16 13 12
9 10 10 10 10 10 10 10 9 9 10 10 9 9 9 10 10 11 11 10 11 10 10 10 9 10 11 11 12 12 13 14 15 14 11 11 12 12 10 10 11 10 11 14 13 12 13 13 13 15 18 19 22 19 14 14 12 13 17 16 15 11
8 9 9 11 12 11 9 9 8 9 10 10 10 9 10 10 11 12 10 11 10 11 11 9 9 10 11 11 12 13 13 14 13 13 12 12 13 14 13 12 11 11 11 13 14 11 12 13 15 17 18 19 21 19 14 13 14 14 12 12 11 10
8 9 10 11 13 12 11 10 9 9 9 10 11 11 11 11 12 12 11 12 12 12 10 9 9 10 12 12 13 12 13 14 14 13 12 12 12 14 13 12 12 12 11 11 13 17 16 14 15 16 19 21 21 18 13 14 15 14 12 12 10 9
9 11 12 12 13 12 10 9 9 9 11 11 11 11 11 12 12 12 12 13 13 11 10 9 10 10 10 12 13 13 13 13 13 13 12 12 12 13 14 14 13 15 13 11 12 13 12 13 13 14 20 20 21 23 15 12 16 18 16 13 10 8
9 11 13 12 12 10 8 6 7 10 11 11 11 12 12 12 12 13 14 13 13 13 12 11 11 12 12 11 13 14 14 13 14 14 14 13 13 13 15 16 16 15 15 13 12 12 13 13 15 15 20 21 22 24 22 14 16 16 14 12 14 10
10 12 13 13 12 10 8 6 9 12 12 12 13 13 14 13 14 14 13 14 14 13 13 13 12 12 12 12 12 14 15 14 14 14 14 13 14 17 19 19 16 15 15 13 12 12 14 14 19 15 17 22 24 24 27 17 16 16 14 13 10 7
12 13 14 12 12 10 8 10 12 12 12 14 16 15 15 15 15 15 15 15 15 15 16 15 14 14 12 14 13 15 17 16 14 14 14 15 16 17 19 20 18 16 15 14 13 12 12 11 11 18 17 21 25 26 26 28 22 23 17 15 11 8
11 13 14 13 11 9 8 8 11 13 15 18 16 16 15 14 15 15 16 16 16 16 15 15 16 15 15 15 15 15 16 17 16 15 14 15 15 15 16 16 15 15 15 15 14 13 12 10 9 13 20 19 24 25 27 27 28 27 18 13 11 9
12 13 15 15 13 11 9 8 10 14 17 17 15 15 16 17 17 17 17 17 17 17 17 17 16 17 16 16 16 17 17 18 16 16 15 14 15 15 16 16 15 15 15 14 14 13 12 10 9 9 13 21 22 25 26 27 28 27 29 19 14 10
10 12 14 18 15 12 10 9 9 14 16 16 15 16 16 17 19 19 19 19 18 18 17 18 19 18 17 17 15 16 16 17 16 15 15 14 15 15 15 16 15 15 15 15 14 14 13 11 9 8 8 11 17 19 24 27 26 27 29 26 16 16
11 13 14 17 16 12 10 10 11 12 13 15 15 16 16 17 18 20 20 19 17 18 17 18 16 16 16 16 15 15 15 14 14 14 15 14 15 15 16 16 16 16 16 16 15 14 12 12 10 9 8 8 9 10 13 15 17 25 26 19 15 13
11 14 15 15 15 13 13 12 12 12 13 14 14 15 16 18 17 18 20 20 18 18 17 17 21 20 16 16 15 15 14 14 13 14 15 15 14 15 16 15 16 16 15 15 14 14 13 13 11 10 9 9 9 9 9 10 11 10 11 13 12 11
12 13 14 16 14 14 14 14 13 12 14 15 14 16 17 18 21 20 22 20 20 18 18 17 16 16 16 16 16 15 15 14 14 15 16 16 14 15 16 16 17 18 17 16 16 16 15 14 13 11 8 8 12 11 8 10 10 9 10 14 13 9
10 14 15 15 13 13 14 15 14 13 13 13 14 15 16 18 20 20 20 18 17 18 17 16 17 16 16 17 16 16 17 20 25 21 18 17 22 29 32 29 22 20 17 18 18 16 17 16 13 15 15 15 19 20 22 19 18 17 14 14 20 13
12 13 15 14 13 14 14 14 13 14 13 13 13 14 15 18 18 19 17 17 16 17 18 18 17 17 17 17 18 17 18 17 16 24 30 31 30 30 33 34 36 38 36 27 22 23 32 31 30 28 26 25 23 22 23 24 22 23 23 21 15 14
13 13 15 14 13 14 14 15 16 14 13 13 13 12 14 17 18 18 18 16 16 18 18 17 18 18 18 17 16 17 17 17 18 17 21 27 28 30 32 33 33 33 33 35 33 26 19 27 32 32 29 27 27 26 25 25 24 24 24 23 23 12
12 13 13 14 15 14 13 13 14 12 11 13 13 13 16 17 17 19 19 17 17 17 18 17 17 16 16 17 17 17 16 17 16 18 17 16 23 28 27 27 31 32 31 30 29 30 29 29 27 29 29 27 27 27 25 23 25 24 25 24 17 13
13 13 14 15 15 14 14 14 15 12 13 14 14 15 16 17 18 19 17 16 17 17 17 16 16 16 16 16 16 16 16 16 17 17 18 18 16 16 20 26 29 30 32 33 33 32 31 29 29 29 29 30 28 27 26 23 18 23 26 21 13 13
13 13 14 16 15 14 14 14 15 15 14 15 15 16 16 16 18 17 20 26 21 16 16 16 16 16 16 16 16 15 16 16 16 16 17 16 17 16 16 15 15 19 25 23 23 26 31 31 29 28 28 28 27 27 25 23 15 14 14 16 13 11
12 13 13 13 12 14 14 16 17 15 15 15 15 15 15 18 17 17 15 15 17 16 15 15 15 16 16 15 15 16 16 16 16 16 16 16 16 16 16 15 15 15 18 28 27 27 27 29 30 26 25 25 25 25 24 15 12 13 13 13 13 11
Wind_Direction
19 19 18 18 19 20 18 16 17 16 18 20 27 28 28 24 22 23 23 21 14 4 2 0 356 347 332 317 307 298 286 280 273 263 256 254 236 231 228 220 223 220 216 214 217 212 210 209 209 206 207 206 212 213 217 210 203 202 210 210 203 201
28 24 17 14 14 12 10 11 13 15 12 12 13 14 17 20 21 17 19 19 16 12 13 11 5 357 346 333 320 310 301 291 282 274 269 259 254 238 228 225 219 217 215 214 215 215 211 209 209 206 209 207 212 212 212 211 203 209 211 208 201 197
20 18 19 18 21 23 17 15 15 12 12 15 14 12 8 8 10 13 12 6 8 12 12 9 8 5 357 350 342 325 313 303 292 283 272 270 258 250 237 229 224 218 215 213 213 215 214 211 210 207 208 211 214 214 211 207 200 205 210 207 203 201
7 12 20 20 19 22 19 18 18 16 17 16 14 15 16 10 5 3 358 357 1 3 2 6 8 4 359 355 352 346 336 322 313 301 287 273 265 251 245 241 233 225 219 217 217 213 216 216 214 211 209 214 215 216 211 205 196 200 205 204 205 199
3 6 12 14 15 15 14 15 16 15 14 16 16 15 14 12 6 3 357 353 356 358 359 359 1 360 4 4 359 353 345 338 325 317 305 294 282 267 254 250 242 231 221 220 217 216 217 216 215 213 213 217 217 217 213 206 200 200 199 203 205 194
6 9 10 10 10 9 10 9 8 8 8 10 9 11 10 8 4 356 357 354 352 353 354 358 357 358 359 359 354 351 347 337 331 322 312 303 289 279 268 251 252 246 231 226 222 219 217 212 214 216 215 216 217 219 220 213 211 207 204 203 198 186
7 5 2 2 1 2 2 4 5 5 5 3 4 3 1 360 357 354 355 351 345 345 354 354 356 356 356 353 348 344 340 339 335 327 316 310 296 278 271 260 244 248 241 230 223 219 220 218 215 218 219 218 219 220 219 214 210 209 212 211 202 194
359 0 2 360 358 357 354 355 356 356 356 360 359 357 357 355 353 345 345 346 346 347 350 350 350 348 346 344 343 340 338 333 333 331 326 319 311 300 280 268 256 234 243 239 231 223 221 215 216 220 222 221 219 219 221 220 214 212 211 211 212 205
352 356 352 353 351 352 349 347 346 346 346 348 352 352 352 348 347 346 345 347 346 345 350 346 345 342 337 335 333 333 334 335 332 330 329 326 316 306 298 286 264 248 244 245 241 236 232 229 227 225 219 217 218 219 219 222 217 209 208 214 215 213
344 350 351 348 348 343 340 340 336 340 339 339 342 345 348 347 344 341 341 340 342 342 343 341 337 336 334 331 329 326 325 323 331 334 328 325 319 313 303 292 285 268 248 241 245 241 236 234 234 233 230 226 225 220 219 219 215 211 211 216 214 214
333 332 335 333 329 329 329 330 336 338 341 337 340 342 343 343 339 337 338 338 339 338 333 330 329 331 337 332 330 330 330 330 325 322 319 318 316 314 306 294 285 279 267 251 237 242 246 246 239 233 223 216 218 213 211 217 219 210 217 218 218 211
318 314 316 317 321 323 324 324 330 334 332 331 332 337 339 342 336 334 333 333 332 331 330 329 327 332 334 335 335 332 329 328 328 327 324 317 311 311 309 302 288 277 274 269 256 244 235 239 245 241 237 233 229 229 233 233 233 228 222 218 218 218
317 316 313 315 317 319 321 318 320 321 318 317 322 325 332 333 328 327 327 327 328 326 325 326 327 329 329 327 327 324 325 325 324 322 319 318 317 315 312 311 302 286 267 264 267 262 253 239 237 241 235 231 227 227 232 231 232 231 229 221 214 216
320 318 316 315 314 316 317 317 314 313 312 312 311 315 319 320 317 318 317 319 323 324 325 326 326 327 325 326 323 321 313 310 310 312 312 315 319 317 315 307 295 295 289 275 266 257 254 252 248 241 236 230 226 221 223 225 230 227 227 224 216 218
311 311 310 310 313 314 314 316 312 310 313 311 310 313 313 313 313 312 313 314 316 316 317 322 325 325 324 326 325 319 312 305 306 308 314 314 311 309 305 309 302 290 281 275 277 271 261 256 254 248 236 230 227 223 217 229 228 228 230 225 220 218
302 302 301 298 299 303 307 309 305 303 305 304 303 307 308 309 309 308 308 310 310 313 314 316 320 319 319 320 320 319 312 308 303 305 307 305 307 308 303 303 297 296 292 280 275 272 270 267 266 251 243 235 226 225 221 227 229 230 231 225 218 219
295 296 298 301 302 303 301 300 300 301 299 298 297 299 302 303 303 303 303 302 303 307 308 311 314 314 315 318 319 318 312 306 303 304 304 303 301 302 300 301 299 300 295 287 278 275 271 266 266 260 247 242 233 228 224 228 229 231 233 229 222 222
296 300 299 298 297 295 297 294 299 299 295 296 293 296 295 294 294 294 299 299 301 303 304 307 308 308 310 311 313 313 311 309 304 304 304 300 295 288 288 288 286 290 296 292 288 280 275 269 267 261 252 246 242 236 228 231 231 232 234 233 226 218
293 294 294 290 289 291 292 296 297 295 295 295 294 294 293 294 292 294 295 295 297 299 298 301 303 303 304 305 305 304 304 305 304 303 304 299 295 290 287 282 280 281 284 288 288 279 274 275 268 260 256 253 249 243 237 233 231 230 233 233 230 213
289 288 289 293 292 293 297 301 304 299 295 292 293 293 291 291 291 295 295 292 294 292 295 296 298 297 299 300 296 298 301 299 295 293 296 294 294 291 285 281 281 275 272 278 283 274 277 277 274 269 262 255 251 243 241 237 237 231 225 228 218 210
292 291 290 287 290 301 309 308 303 294 287 291 291 288 285 288 293 294 296 297 297 295 291 290 289 291 292 291 290 291 291 292 290 287 290 289 289 286 288 285 280 279 274 270 274 279 275 273 274 266 261 255 250 244 239 242 241 238 229 223 220 206
294 291 292 293 296 305 306 307 300 293 290 288 290 286 287 294 296 300 299 296 294 293 291 288 287 279 281 284 288 290 287 286 285 284 286 288 288 289 287 284 279 280 275 269 271 271 266 267 268 263 258 254 249 244 239 237 243 240 238 229 222 207
288 289 292 295 300 305 309 311 303 297 298 295 292 290 300 303 305 304 297 295 294 291 289 288 286 284 280 279 285 287 286 284 282 284 285 288 289 285 283 280 279 276 272 268 261 260 262 261 265 263 255 252 248 244 240 236 239 243 241 236 231 218
293 294 295 299 306 313 321 325 312 305 305 302 296 305 309 309 309 304 299 293 290 287 287 288 286 281 282 283 285 283 282 279 278 280 283 285 285 285 284 280 276 272 268 266 257 253 260 256 248 253 254 250 248 244 239 238 239 239 243 240 231 203
303 301 301 307 312 321 329 332 317 310 308 302 307 315 312 312 310 306 300 295 289 289 290 289 286 283 284 284 282 281 280 281 280 279 280 278 275 273 275 274 272 266 263 262 260 252 247 241 239 240 247 247 247 244 241 239 241 240 239 240 232 205
304 305 308 311 312 318 324 329 317 311 309 306 317 317 315 315 312 306 299 294 291 292 291 289 288 283 282 281 282 283 280 279 277 276 274 276 274 275 272 271 270 266 260 257 259 255 243 229 233 232 236 241 243 243 242 242 242 241 240 237 235 221
318 315 309 306 309 317 322 330 323 313 307 311 320 320 318 314 310 304 296 295 294 293 293 292 288 287 286 284 283 281 279 277 278 277 274 271 270 268 266 267 266 263 262 260 257 258 255 243 223 229 231 234 240 243 243 243 242 243 243 239 235 214
312 306 302 302 309 322 320 326 327 315 310 317 317 313 310 307 305 302 298 298 296 294 295 291 290 287 283 281 278 274 272 271 272 271 272 270 267 268 267 269 269 265 262 260 256 255 254 250 238 230 227 221 235 239 243 242 242 242 242 244 234 223
312 306 307 302 310 322 320 328 323 314 312 310 309 307 305 304 302 300 297 296 297 297 296 293 292 291 287 281 278 273 271 271 270 269 270 267 266 267 269 270 270 269 266 264 261 260 257 249 242 236 227 217 223 224 229 235 239 240 242 245 235 208
306 304 306 304 312 319 317 316 312 309 307 303 302 302 301 298 297 296 295 294 293 292 291 289 287 286 284 281 277 275 273 270 266 267 265 267 267 269 271 271 270 271 270 270 270 269 264 257 248 233 222 220 214 220 215 223 231 230 229 235 232 212
308 306 307 304 310 310 307 305 303 303 302 301 300 303 298 295 297 293 291 292 293 291 292 288 286 285 285 283 280 273 269 269 269 267 267 262 263 263 266 270 268 266 267 271 272 271 268 262 257 245 208 210 210 208 212 215 223 217 222 230 212 182
308 305 303 301 307 304 302 300 302 299 297 297 297 298 293 294 297 295 294 293 292 292 291 291 289 288 286 284 283 283 278 269 267 266 265 267 262 262 263 264 265 266 268 271 266 261 261 264 265 271 262 233 225 225 226 224 222 226 226 228 206 171
309 303 300 302 304 300 297 297 299 299 296 295 291 293 290 294 297 296 294 293 291 292 292 291 289 288 285 284 284 282 283 284 274 269 269 268 270 269 269 268 266 267 265 263 265 266 266 267 267 266 264 262 255 240 236 231 227 227 231 226 196 177
312 308 304 301 297 296 295 293 294 290 289 293 295 292 293 295 293 293 293 294 293 293 290 289 288 287 286 285 283 282 283 282 284 280 269 269 270 273 274 272 267 265 265 261 258 260 262 262 262 262 260 258 255 253 249 238 229 228 227 229 189 180
306 302 297 295 295 293 290 286 286 287 288 296 300 300 296 292 292 293 293 293 293 292 291 291 289 287 286 285 283 282 280 281 282 283 288 279 276 277 277 282 290 290 288 287 282 272 264 262 260 259 259 254 251 249 247 244 236 231 226 223 197 193
300 297 292 288 289 288 291 289 293 295 300 304 300 294 291 291 290 290 289 292 292 291 290 288 287 286 285 283 283 282 282 280 280 283 285 288 289 285 282 279 277 281 287 286 281 278 279 276 268 265 258 252 248 245 243 240 236 232 229 222 203 197
294 290 285 287 289 288 291 291 296 303 303 300 295 292 290 288 288 287 286 286 288 287 287 286 285 285 284 284 282 281 280 279 279 279 280 280 282 284 283 285 281 275 272 273 275 273 269 270 271 265 262 255 245 239 234 233 231 227 227 225 208 198
284 283 285 287 286 292 294 296 300 301 299 296 292 289 288 292 290 288 287 289 289 286 284 283 284 283 282 281 280 280 279 278 278 276 275 275 275 277 279 283 281 279 276 277 276 270 263 260 261 263 265 263 250 234 223 221 220 223 222 222 209 188